GFSSW_850_thetae_018.txt.gz
Theta_e
310 310 310 311 311 311 311 312 313 314 312 313 316 315 315 313 312 315 318 318 318 318 318 318 317 316 315 313 312 312 306 308 310 311 313 312 312 313 318 323 318 325 324 325 329
311 311 311 311 311 311 312 312 314 313 312 315 315 316 315 313 318 318 318 317 318 318 319 317 317 316 315 314 315 309 307 312 311 310 313 313 313 313 317 321 323 322 322 326 331
312 312 312 311 312 312 312 313 314 312 314 314 315 317 318 315 317 318 318 317 317 318 319 318 318 318 316 316 314 313 311 312 314 313 314 315 315 314 318 320 321 318 322 328 334
312 312 312 312 312 312 312 314 312 313 314 314 316 318 317 316 315 318 318 318 316 317 319 319 318 318 314 314 315 314 314 314 315 315 315 314 315 315 315 315 317 318 319 324 329
312 312 312 312 312 312 313 314 312 313 313 315 318 317 318 318 318 319 318 318 316 317 319 319 319 318 315 316 316 315 315 316 317 316 316 316 315 314 315 316 317 318 323 322 323
311 311 311 312 312 314 314 312 312 312 315 319 319 317 317 317 318 318 318 318 317 318 318 318 318 319 319 317 316 317 316 316 316 317 317 316 315 316 316 316 316 319 321 322 323
312 312 312 313 314 315 314 313 313 316 318 319 318 317 318 318 317 318 318 318 318 318 319 319 319 319 318 318 318 317 316 312 314 314 314 314 312 312 316 315 316 316 322 322 321
314 314 315 315 315 315 314 314 316 317 318 320 320 317 318 317 317 318 316 317 316 319 319 319 319 318 316 317 314 311 310 312 313 314 314 313 313 311 314 314 316 316 320 324 322
316 315 314 314 314 314 315 315 316 317 319 319 319 318 318 316 316 316 315 317 319 319 320 319 319 316 314 309 309 308 312 313 312 313 313 315 314 313 316 315 316 316 315 322 323
317 316 316 316 316 316 315 315 317 318 318 318 318 317 316 316 316 316 313 318 319 319 319 319 317 309 308 309 311 314 312 313 314 313 313 313 312 311 311 312 312 313 314 314 323
317 316 316 316 320 317 315 317 318 316 316 315 315 315 315 316 316 315 314 318 317 315 313 315 311 312 313 312 313 313 314 315 313 313 314 314 312 310 309 311 311 310 311 312 314
316 316 316 317 319 319 318 319 318 318 316 315 315 315 315 316 316 316 316 316 315 312 313 313 313 313 312 312 313 314 315 313 313 313 314 313 313 309 310 310 311 312 313 314 315
316 316 316 317 316 317 320 318 318 319 315 315 316 316 316 316 316 316 316 316 313 313 312 313 314 313 313 312 314 313 314 314 314 312 314 312 314 311 311 312 312 313 314 315 315
316 316 315 316 317 317 319 316 317 319 312 315 316 316 316 316 315 317 316 315 313 313 313 314 312 313 313 314 313 315 313 314 314 315 317 312 316 313 310 310 310 313 313 313 314
315 316 315 315 316 316 316 315 315 322 312 315 315 317 317 316 315 317 316 316 314 314 313 315 312 313 315 314 313 315 314 314 315 315 315 314 312 312 310 312 312 311 313 314 314
314 315 316 315 316 319 314 314 318 314 317 316 316 316 316 316 315 317 316 316 315 314 314 314 313 313 314 314 314 314 315 313 313 313 316 316 314 313 312 312 312 312 315 315 314
313 315 315 315 319 319 317 316 317 315 317 317 316 315 314 314 315 314 314 313 314 313 315 315 316 315 315 316 314 314 313 313 316 316 318 315 314 314 313 311 312 313 315 315 315
313 314 314 315 315 317 315 318 318 317 317 316 315 315 315 314 315 314 314 314 313 313 315 317 314 316 315 316 316 315 314 312 314 317 316 314 316 315 314 314 313 314 314 313 313
316 313 314 319 317 316 323 314 314 316 315 316 316 317 317 317 315 314 315 315 314 314 316 317 316 315 316 316 315 317 315 314 313 312 313 314 314 313 311 311 312 311 312 312 312
315 314 315 317 317 323 314 314 315 314 316 317 317 317 318 318 317 315 316 315 315 315 314 316 318 316 315 316 315 315 313 315 311 312 319 316 316 315 313 312 310 310 312 312 312
322 317 322 319 323 320 312 311 313 316 317 317 318 319 318 319 317 316 316 316 315 315 314 314 314 314 313 314 315 315 315 313 313 313 313 316 316 312 311 311 311 311 312 312 312
320 314 323 325 317 310 312 314 316 317 317 317 316 317 318 317 318 318 318 316 315 316 316 313 310 312 315 313 313 313 315 312 310 314 311 310 313 310 310 311 311 312 312 312 312
320 322 322 323 311 306 315 316 317 317 316 316 317 316 316 316 317 317 317 315 316 315 315 313 310 310 308 312 311 314 314 312 309 307 314 314 311 309 310 311 312 312 312 312 311
319 313 320 318 315 313 315 316 317 318 316 316 316 316 315 315 314 317 317 316 316 316 315 314 311 310 310 310 310 313 314 313 313 313 313 313 313 312 311 309 312 313 312 312 311
316 315 317 310 315 315 315 316 317 317 316 317 316 316 315 314 316 318 316 315 315 315 314 311 314 311 311 311 311 313 313 313 313 312 315 313 312 312 309 311 312 312 312 311 311
317 318 316 315 316 314 310 317 318 316 316 317 316 315 315 315 315 315 316 315 314 314 314 310 310 312 311 310 310 311 311 312 312 312 312 313 312 309 312 312 311 310 310 310 309
319 317 318 310 309 308 309 315 315 315 316 316 315 313 311 315 317 317 317 316 314 314 311 311 307 306 307 308 307 306 308 310 311 310 310 311 309 310 311 310 309 310 309 309 308

GFSSW_850_thetae_021.txt.gz
Theta_e
310 310 310 310 311 311 311 311 312 314 311 313 315 315 312 312 317 317 317 316 317 318 317 317 315 315 314 313 312 312 312 311 311 312 313 311 313 313 320 323 319 324 323 325 331
311 311 310 310 311 311 311 311 313 312 312 315 315 316 313 317 318 318 317 317 317 318 317 316 316 315 315 314 314 311 313 313 311 311 314 313 312 312 317 320 323 322 322 325 329
312 311 311 311 311 311 311 312 313 312 314 314 316 318 314 317 317 318 318 316 317 318 317 317 316 316 315 315 314 313 315 312 313 312 314 314 314 313 318 318 318 318 320 325 328
312 312 312 311 311 311 312 313 312 313 314 314 317 317 315 315 317 318 318 316 317 318 318 318 318 317 316 316 314 316 313 313 314 314 314 314 314 314 316 316 316 318 319 323 328
312 312 312 312 312 312 313 312 312 314 314 318 317 317 317 318 317 318 318 317 317 318 318 318 318 318 317 315 316 316 315 315 315 315 315 315 315 315 315 316 316 317 320 321 324
312 312 312 312 312 313 313 312 313 313 317 319 317 316 317 317 317 317 318 317 318 318 318 318 319 319 318 316 318 316 315 315 315 315 314 315 315 315 315 315 315 316 319 321 321
311 311 311 312 313 314 312 312 313 317 318 318 317 317 317 317 316 316 317 316 318 319 319 319 318 318 318 317 317 315 316 314 314 313 314 312 316 315 313 315 315 314 320 322 321
312 312 313 314 314 314 313 313 317 317 319 319 317 317 317 316 316 315 315 316 318 319 319 319 318 317 315 316 313 314 314 316 314 315 315 316 319 316 315 314 314 315 315 320 323
314 314 314 314 314 314 314 316 317 318 318 318 317 317 317 316 316 314 316 318 319 319 319 319 318 315 313 313 314 313 315 315 316 313 315 316 318 316 311 312 314 315 315 315 322
315 315 315 315 315 315 316 316 317 318 318 317 317 315 315 316 315 313 317 318 318 318 318 318 315 314 313 315 315 316 315 315 316 315 316 316 317 314 310 310 310 311 313 314 315
316 316 316 319 316 315 316 318 317 315 315 314 315 315 315 316 316 315 317 317 316 316 316 314 316 315 313 313 313 313 314 316 314 313 316 316 315 313 311 312 312 312 312 312 314
316 316 317 321 317 317 317 317 316 316 315 315 315 315 316 316 317 316 317 316 315 315 313 315 315 313 312 312 313 314 315 314 314 313 316 317 316 312 312 311 310 312 313 314 314
316 316 318 316 319 318 317 317 318 317 315 316 316 316 316 316 316 317 316 316 313 314 313 316 313 312 313 314 316 315 315 315 315 314 314 315 317 315 312 312 312 312 313 314 314
315 315 316 317 316 318 317 317 318 319 314 315 316 316 316 315 315 316 315 315 314 313 313 314 311 313 315 315 314 317 313 315 315 318 320 314 320 316 312 313 312 312 313 313 314
315 315 315 316 316 317 317 316 316 324 316 315 315 316 316 315 314 316 316 317 315 313 315 314 313 315 317 314 313 317 314 315 316 318 318 318 318 317 314 315 314 314 314 315 315
315 315 315 315 315 315 314 314 321 315 316 316 315 315 316 315 315 316 316 316 315 315 315 314 313 313 314 313 314 314 316 314 315 317 322 318 317 318 316 314 315 314 312 313 313
314 315 315 316 316 316 314 318 318 317 316 316 315 315 313 314 315 314 314 315 316 315 318 316 316 315 314 317 316 317 316 319 323 324 323 316 316 317 314 314 314 313 311 312 312
313 314 315 315 317 317 314 319 318 316 316 315 314 314 315 314 315 315 315 316 315 314 317 318 317 317 315 316 316 317 317 320 318 321 321 315 319 318 313 312 312 312 311 312 312
313 314 314 314 315 316 320 317 316 315 315 315 316 317 316 317 315 315 315 315 315 315 318 319 317 315 315 315 315 317 320 315 317 314 319 318 316 315 313 312 312 312 312 312 312
315 313 317 317 316 317 316 314 314 314 315 316 317 316 317 318 317 316 316 315 315 314 313 316 320 315 315 315 314 316 314 319 318 321 320 319 318 318 315 314 312 313 313 312 312
317 318 319 319 323 319 315 312 313 316 316 317 317 318 317 318 316 316 316 315 314 315 314 314 316 315 313 316 317 317 318 316 316 317 322 320 319 315 314 313 313 312 312 312 311
318 319 323 323 316 309 313 313 316 316 317 316 316 317 317 317 318 318 318 316 314 315 317 313 313 316 315 313 313 314 315 314 317 316 316 317 316 312 313 312 312 312 312 312 312
321 322 322 321 314 309 314 316 316 316 315 316 316 316 315 316 318 317 316 315 316 315 316 314 314 313 310 313 312 316 315 312 311 311 317 318 316 310 311 311 311 312 313 310 310
319 316 319 317 313 314 315 316 317 317 315 316 315 315 315 315 315 317 317 316 315 315 314 313 312 312 313 311 311 314 314 313 315 317 315 316 315 314 313 312 312 312 310 310 310
316 315 316 312 315 313 314 315 317 316 316 316 316 315 315 315 316 317 316 315 314 314 314 313 316 313 313 313 312 313 314 314 315 315 317 316 315 314 313 312 312 310 310 310 310
317 318 315 313 314 314 310 316 317 315 315 316 316 315 314 315 314 316 316 314 315 314 313 311 314 312 313 311 311 312 312 312 313 314 314 314 315 313 311 312 310 310 309 309 308
317 317 318 308 308 311 311 315 316 315 315 315 315 313 311 315 315 316 315 314 313 314 312 312 312 311 313 308 309 312 309 311 312 312 313 313 312 310 312 310 310 309 309 308 306

GFSSW_850_thetae_024.txt.gz
Theta_e
311 310 310 310 310 310 311 311 311 313 312 314 315 313 312 316 317 317 318 316 317 317 315 317 316 316 313 314 314 315 318 318 317 317 317 315 317 315 320 323 323 324 326 329 333
311 311 310 310 310 311 311 311 312 312 313 315 315 313 316 317 318 318 317 316 318 317 317 316 315 314 316 316 316 318 318 317 316 317 317 316 316 317 319 319 321 324 326 330 335
312 311 311 310 311 311 311 311 313 311 314 315 316 314 316 317 318 318 317 317 318 317 316 316 316 317 318 318 318 318 318 317 316 316 317 317 316 316 317 318 318 318 324 331 334
312 312 311 311 311 311 311 313 312 313 314 316 317 315 316 315 319 318 317 317 318 318 317 317 318 318 319 318 317 317 317 316 316 316 316 317 317 317 318 317 317 320 323 328 331
312 312 312 311 311 311 312 313 312 314 315 318 316 315 318 319 318 318 317 318 318 318 318 319 318 319 319 318 319 320 319 319 317 316 318 317 318 318 318 317 317 320 325 327 328
312 312 312 312 311 312 313 312 313 315 318 317 317 317 318 318 316 316 318 317 318 319 318 319 319 319 319 320 321 319 319 319 318 318 317 319 319 318 317 317 317 321 324 326 327
312 312 312 311 312 313 312 313 315 318 318 317 317 317 318 317 316 315 317 317 318 318 319 319 319 320 321 322 319 319 320 321 319 319 320 318 319 319 317 316 317 320 323 325 327
311 311 311 312 313 312 313 314 317 318 318 317 317 317 318 316 316 314 315 318 319 319 319 317 318 318 321 317 318 320 320 320 320 320 319 321 321 320 319 317 319 318 318 324 326
313 313 314 314 313 313 314 316 317 318 318 317 317 318 317 316 316 314 316 318 319 319 319 317 317 318 317 320 320 319 317 318 319 318 320 320 320 320 316 316 319 319 319 319 323
314 314 314 314 313 314 316 316 318 318 317 317 316 317 316 316 315 315 318 318 319 318 319 319 319 321 320 319 317 318 318 319 318 319 319 321 321 318 316 317 317 317 317 317 319
315 315 315 315 315 315 316 316 317 317 316 316 316 316 316 316 316 316 316 316 317 319 321 318 321 321 319 319 318 318 318 319 318 318 320 321 319 318 317 318 318 318 318 317 318
316 318 319 315 315 316 318 319 316 316 316 315 315 316 317 317 317 317 317 318 319 320 319 320 320 318 317 317 318 319 319 319 319 318 320 321 319 318 317 317 317 318 318 318 317
317 317 319 319 318 318 317 317 315 315 317 317 316 316 316 317 317 317 317 317 318 319 319 319 317 316 317 320 320 320 320 320 320 320 320 321 320 319 317 316 316 317 317 316 316
317 318 317 317 318 317 317 317 316 317 319 317 317 317 316 316 318 316 315 316 317 318 318 318 316 318 319 319 320 320 318 320 320 322 322 321 323 319 318 318 318 318 318 318 316
315 316 316 317 318 318 316 317 318 323 321 318 318 316 317 317 316 318 316 318 318 318 319 316 318 319 320 319 319 321 319 320 321 322 322 322 322 321 318 319 319 318 317 316 315
315 315 315 316 316 317 316 315 321 324 320 319 318 318 319 319 318 318 318 317 317 320 319 318 316 319 320 318 318 319 320 320 321 323 325 323 323 323 320 319 319 317 316 316 315
315 315 315 315 316 315 314 319 322 321 319 318 319 319 319 319 319 319 320 320 320 321 321 319 319 319 319 320 320 321 322 323 326 326 325 321 322 323 318 318 317 317 316 315 315
314 315 315 316 315 314 314 324 320 320 320 317 318 319 319 319 319 319 320 320 320 319 320 321 322 320 319 319 321 321 322 325 323 322 323 320 322 322 317 316 315 315 315 315 315
314 314 315 316 316 315 321 326 323 320 319 319 319 320 320 320 320 320 320 320 319 319 321 321 320 319 318 318 319 322 323 320 322 320 324 321 320 319 317 316 316 316 315 315 315
315 315 315 314 315 316 325 319 319 317 318 319 320 320 321 321 321 320 320 318 319 317 318 320 322 319 317 318 319 320 319 324 322 330 321 318 320 320 319 318 316 316 315 315 314
315 318 318 316 317 322 325 320 318 317 318 320 321 321 321 321 321 321 320 318 318 318 317 317 319 319 317 319 320 321 321 320 321 322 324 322 318 320 319 318 316 315 315 315 314
317 322 319 322 322 318 321 318 317 319 319 320 320 321 322 321 322 322 321 320 316 318 318 318 319 317 315 316 317 318 318 318 321 320 320 320 317 316 317 316 315 315 315 315 314
323 323 323 321 327 323 319 319 318 319 319 320 321 320 320 321 322 321 320 317 317 318 319 318 318 315 316 318 318 319 318 317 316 317 318 321 318 315 315 315 315 315 314 313 312
321 329 321 319 317 321 321 320 320 318 318 319 319 319 320 321 320 321 321 318 317 317 314 316 318 315 314 314 314 314 314 315 317 320 317 318 317 316 316 315 315 315 313 313 312
318 322 320 326 321 320 320 320 321 320 319 319 320 320 321 322 320 321 320 319 317 315 317 318 317 317 316 316 315 316 316 315 316 317 318 317 316 316 315 315 314 314 313 312 312
321 322 317 318 318 320 318 321 320 319 319 320 320 319 318 319 317 319 318 318 317 317 318 317 319 316 317 315 315 315 315 315 316 316 316 316 317 315 313 313 314 313 312 312 311
317 318 321 313 318 322 321 320 319 319 318 318 319 320 320 318 317 318 317 317 317 317 318 318 319 317 321 313 314 318 315 314 315 315 315 316 315 313 313 313 313 312 312 311 310

GFSSW_850_thetae_030.txt.gz
Theta_e
312 312 311 311 310 310 310 309 310 310 311 313 313 314 312 315 317 317 321 318 317 316 313 315 319 319 319 318 319 319 323 324 322 323 320 319 320 319 320 320 322 326 326 332 333
312 312 312 311 311 310 310 310 310 310 313 312 314 312 314 317 317 322 318 318 317 315 316 319 319 319 318 320 319 320 321 319 320 319 318 318 318 318 321 320 321 325 331 332 331
312 312 312 311 310 310 310 310 310 312 312 314 314 313 316 317 320 320 317 318 316 317 320 320 319 318 319 320 319 320 319 319 318 318 318 318 318 319 320 320 321 321 328 330 331
313 312 312 311 311 310 310 310 311 313 313 314 314 315 316 316 323 318 318 318 317 317 320 319 318 319 320 320 320 319 318 317 318 318 318 318 317 318 319 320 320 321 323 329 329
313 312 312 311 311 310 311 310 313 312 314 316 315 315 317 321 321 318 318 319 319 320 322 321 320 320 320 320 319 318 317 317 317 318 319 318 318 319 319 318 319 322 324 327 327
313 312 312 311 311 311 311 312 312 314 315 317 315 316 317 322 318 318 318 319 320 320 320 320 320 319 319 319 320 319 319 319 319 320 319 319 320 319 319 319 318 321 324 326 328
312 312 312 311 311 311 312 312 314 315 317 316 315 316 320 321 318 318 318 319 319 320 321 320 320 319 320 322 320 320 321 321 321 321 321 320 320 319 320 320 320 320 321 325 325
312 312 312 311 311 312 312 314 314 317 317 316 315 315 323 319 318 317 317 318 319 320 320 319 320 322 322 321 320 320 322 322 322 322 322 321 323 320 320 320 320 320 321 322 325
311 312 312 311 312 312 313 314 317 318 317 317 316 317 323 317 318 317 317 319 319 320 320 319 321 320 321 321 321 321 322 323 322 321 322 322 323 322 322 321 321 320 321 322 323
311 311 311 312 312 313 314 316 317 317 317 317 321 322 318 318 317 317 317 320 320 321 320 321 322 322 322 322 323 321 320 319 320 321 320 321 321 322 321 321 321 321 321 321 321
312 312 313 312 312 313 316 317 319 320 320 320 318 319 317 316 316 318 318 320 321 322 323 321 322 323 321 320 319 319 319 320 321 321 320 320 321 322 322 322 322 322 322 323 323
314 313 313 313 313 316 317 324 325 322 320 318 318 318 317 318 318 318 319 321 321 322 323 321 321 321 320 320 319 320 321 322 322 321 320 322 322 321 321 322 322 322 322 321 321
315 314 314 314 315 316 323 327 324 319 319 318 319 318 319 320 320 319 319 320 321 322 320 322 321 319 319 320 321 321 321 324 322 322 322 321 322 321 321 321 321 321 321 320 320
319 316 315 315 317 321 326 319 320 319 321 317 318 318 318 319 319 319 319 320 320 320 320 321 319 320 320 321 321 322 323 322 321 322 322 323 323 322 321 321 321 322 321 319 319
318 320 318 318 326 322 325 317 316 319 327 319 319 318 318 320 320 319 318 319 320 320 321 321 320 321 322 322 321 323 322 322 322 323 323 323 324 323 322 321 322 321 321 320 320
317 317 318 319 324 325 320 317 315 329 328 320 319 321 320 320 321 320 319 320 321 319 321 321 320 322 322 321 321 321 323 324 324 324 328 325 323 323 322 322 322 321 320 320 319
316 316 322 323 326 318 316 319 322 329 321 320 320 321 322 321 322 322 322 323 324 323 323 322 322 322 321 322 323 323 323 331 332 332 331 326 325 325 323 323 322 321 320 320 319
315 315 316 318 321 317 317 325 327 324 321 321 321 322 322 322 322 322 323 323 322 324 323 323 325 323 321 322 322 323 322 332 329 332 330 324 323 324 322 321 320 320 319 319 319
315 315 318 315 315 316 325 326 325 321 322 321 321 321 322 322 323 323 323 322 321 323 325 323 324 321 320 320 321 322 326 321 322 327 329 322 324 323 321 320 319 319 319 319 318
317 316 322 315 314 315 327 325 324 322 320 321 321 322 322 322 322 323 323 322 321 320 320 321 325 321 319 319 322 321 320 324 329 329 325 320 321 324 321 321 320 320 319 318 318
321 319 323 315 315 322 325 326 322 320 321 321 322 322 323 322 323 324 323 321 321 320 320 319 322 322 319 320 319 321 322 322 321 323 326 325 321 319 319 320 320 319 318 317 317
321 322 322 314 320 321 326 323 319 321 322 323 323 322 323 323 323 323 323 324 320 320 321 318 320 323 319 318 319 319 320 320 328 322 325 326 323 318 318 318 318 318 317 317 317
321 326 316 315 326 326 324 322 322 321 321 322 323 324 324 324 325 324 324 320 319 322 322 320 323 326 322 321 320 318 318 318 318 321 320 323 319 318 318 317 317 317 317 316 317
326 329 320 322 326 323 324 323 323 322 323 323 323 323 324 324 324 324 324 321 320 319 315 319 320 319 321 318 317 316 316 316 317 323 321 321 319 318 318 318 317 315 316 315 315
326 326 321 326 325 324 322 323 323 323 322 322 323 323 323 324 324 324 323 321 320 317 319 321 322 320 319 317 316 315 315 315 316 317 318 319 317 317 317 317 316 315 314 314 314
326 325 324 325 322 324 321 323 323 322 323 322 323 323 323 324 322 323 322 321 321 319 320 320 322 321 320 317 316 314 314 316 316 316 316 317 317 317 316 316 315 315 314 313 313
322 322 325 324 325 326 325 323 323 323 323 322 322 323 324 322 321 320 320 319 319 320 320 321 324 322 323 318 317 322 319 316 316 316 316 318 316 316 315 315 314 313 312 312 310

GFSSW_850_thetae_033.txt.gz
Theta_e
312 312 312 312 311 311 310 310 309 309 309 310 313 312 313 312 314 315 317 319 318 317 314 313 316 316 318 318 318 318 314 316 317 318 317 319 316 319 320 323 328 328 334 334 331
312 312 312 312 311 311 310 310 309 309 309 312 312 314 312 313 316 317 322 321 317 315 314 314 316 318 319 318 318 316 314 315 316 315 314 316 317 318 319 322 331 333 333 332 331
313 313 312 312 311 311 310 310 310 310 311 312 314 313 313 316 317 321 317 317 315 316 318 320 320 319 319 318 319 316 314 315 316 317 317 316 317 320 318 317 329 332 332 331 330
313 313 312 312 311 310 310 310 310 310 313 313 314 313 315 316 324 317 318 317 316 318 319 319 319 318 317 316 319 314 315 317 317 317 317 315 317 317 318 320 322 331 331 330 330
313 313 312 312 311 310 310 310 310 312 312 314 314 315 315 318 321 318 318 319 319 319 320 320 320 318 317 318 317 314 315 317 317 318 318 317 317 317 318 320 321 327 329 329 329
313 312 312 312 311 310 310 310 312 312 314 315 315 315 316 322 318 318 318 318 319 320 321 321 320 319 319 319 316 317 316 316 317 319 318 318 318 319 317 319 322 323 328 327 328
312 312 312 311 311 310 310 311 312 314 314 316 315 315 317 319 318 318 318 318 319 320 320 320 320 321 321 320 319 319 317 317 318 319 318 319 318 317 318 318 320 321 325 326 326
312 312 312 311 311 311 311 312 313 314 317 316 315 315 315 320 319 318 317 318 318 320 320 319 320 321 321 320 319 318 317 317 318 319 320 319 317 316 319 319 319 320 320 325 327
311 312 311 311 311 312 312 313 314 317 317 316 315 315 322 318 317 317 317 319 319 319 319 317 320 321 321 317 317 317 317 319 319 319 320 318 318 317 320 320 320 320 320 321 325
311 311 311 311 312 312 313 315 317 317 317 317 317 323 322 318 317 317 317 319 319 321 319 320 321 318 316 316 319 318 318 320 318 318 318 317 319 318 321 321 320 321 320 323 325
311 311 311 312 312 313 315 316 317 318 319 318 319 321 317 315 316 317 318 320 321 321 320 320 318 319 317 317 318 318 318 317 317 318 318 317 317 318 320 320 320 321 321 321 322
312 312 312 312 312 314 316 321 326 325 320 319 318 318 317 318 318 319 319 320 320 320 320 319 318 318 318 318 318 318 319 320 318 318 317 317 319 317 319 319 321 320 321 321 321
314 313 312 312 313 316 318 327 325 323 320 318 318 317 318 319 319 319 319 320 320 320 320 319 318 318 319 320 320 320 321 320 320 319 319 319 318 318 318 320 320 320 320 320 321
315 314 313 314 316 316 321 326 323 318 316 318 318 317 318 319 318 319 318 319 319 320 318 318 319 319 320 321 319 322 322 321 320 319 319 318 317 318 317 318 319 319 319 320 320
319 315 315 317 325 324 325 324 316 318 319 317 319 317 318 320 318 318 317 319 319 319 319 319 319 321 322 321 320 322 320 321 321 320 320 320 319 317 318 321 319 319 320 319 319
317 317 317 321 325 324 323 317 315 325 321 320 319 319 317 320 320 318 319 320 320 318 317 318 321 320 320 320 320 321 321 321 321 321 321 323 321 318 318 321 319 319 319 319 319
316 317 321 323 326 321 317 316 319 327 321 319 319 320 320 321 320 320 319 321 321 320 320 320 320 320 320 320 321 320 320 323 324 323 324 326 326 326 321 320 319 319 319 319 319
316 317 320 319 324 317 316 323 325 322 320 319 320 321 321 321 321 321 321 320 319 323 322 322 322 319 320 320 320 321 321 320 326 324 324 321 324 321 318 320 320 320 319 319 319
315 315 315 316 315 317 324 326 325 322 321 320 320 321 321 322 322 322 320 320 318 318 323 324 321 319 319 318 319 319 321 319 320 321 321 321 321 319 318 319 319 319 319 318 318
315 315 316 314 314 315 324 325 323 321 320 320 321 321 321 320 322 322 322 321 319 319 319 320 322 319 318 318 322 320 318 319 321 321 324 320 323 325 320 319 318 318 318 318 318
318 318 322 317 314 319 321 324 321 320 322 323 322 321 323 321 321 323 322 320 320 319 317 317 320 320 318 317 317 318 320 319 319 317 318 318 318 317 318 318 317 318 317 317 317
321 319 324 315 318 321 319 323 320 320 322 323 323 322 323 322 323 323 323 321 319 320 319 316 319 317 318 317 318 318 319 319 315 319 317 315 315 315 315 317 317 317 316 316 317
322 324 321 316 316 319 321 322 321 320 321 322 323 323 323 324 323 324 322 320 321 319 319 318 318 316 319 319 319 317 317 316 317 312 315 311 313 315 317 317 316 316 315 314 313
325 319 320 324 326 324 323 322 323 322 322 323 322 323 323 323 323 324 322 321 319 316 315 318 319 317 316 317 315 315 314 314 314 312 315 315 316 315 317 317 315 314 314 314 314
325 322 318 317 318 322 322 322 323 323 322 322 322 323 323 322 323 323 322 321 320 316 318 318 318 319 318 315 315 314 313 312 312 313 313 313 316 316 315 314 314 314 313 313 312
325 326 320 319 316 323 319 321 323 322 322 322 322 322 322 322 322 322 322 320 320 318 319 318 318 316 315 317 315 313 313 314 314 315 316 315 315 313 314 313 312 312 311 310 309
323 323 327 324 320 322 322 323 323 322 322 322 321 320 318 320 319 318 318 318 319 318 319 319 313 311 314 314 312 312 315 314 314 314 314 315 314 313 312 311 310 310 309 307 305

GFSSW_850_thetae_036.txt.gz
Theta_e
312 312 312 312 312 312 311 310 309 309 308 308 310 313 312 313 312 313 316 320 319 317 316 314 314 315 316 318 318 317 313 313 314 318 318 316 317 324 327 329 329 331 332 331 328
312 312 312 312 312 312 311 310 309 309 309 309 312 312 313 312 314 316 320 321 319 317 316 313 314 317 319 318 318 315 312 314 314 316 314 314 319 320 327 331 332 333 333 330 326
312 312 312 312 312 312 311 310 310 309 309 310 312 312 313 314 316 318 320 317 316 316 316 316 316 319 318 319 317 314 312 314 315 315 317 317 317 319 325 329 333 332 332 330 326
312 313 312 312 312 311 311 310 310 309 309 312 312 313 313 315 321 318 318 318 317 316 318 319 320 320 316 315 317 313 314 316 316 315 316 314 317 316 319 328 330 332 332 330 326
313 313 312 312 312 311 310 310 310 310 311 312 313 314 315 316 318 318 317 318 318 318 318 319 321 320 315 316 314 313 314 316 318 317 316 315 316 316 319 326 331 332 330 329 327
313 312 312 312 312 311 310 310 310 310 312 313 314 315 315 319 321 318 318 318 318 319 320 319 320 320 318 317 314 315 315 315 317 318 318 316 316 318 318 327 331 330 328 327 327
312 312 312 312 311 310 310 310 310 312 313 314 315 315 316 317 319 317 317 317 317 319 320 319 319 321 319 316 316 315 314 315 316 318 317 319 317 314 320 326 331 330 329 328 327
312 311 312 312 311 310 310 310 312 313 313 316 315 315 316 319 320 318 317 317 318 319 319 318 320 321 319 318 318 317 315 316 317 316 319 317 316 315 318 323 328 329 328 328 328
311 311 312 311 311 310 311 312 312 314 316 316 316 316 315 320 317 317 316 319 319 316 317 318 320 320 319 314 314 315 315 317 318 317 318 317 316 316 317 319 319 317 322 324 325
311 311 311 311 310 311 312 312 315 316 316 316 317 320 317 319 317 316 316 319 319 320 319 320 320 315 314 314 316 317 315 317 317 317 316 316 318 317 317 318 320 321 322 323 324
311 311 311 311 311 312 313 316 317 318 318 314 316 320 318 317 316 316 316 318 320 320 319 319 316 317 315 315 315 316 316 316 316 317 317 315 316 317 319 320 319 321 321 321 322
311 311 311 311 312 313 316 320 326 325 318 315 317 318 318 316 317 317 318 319 319 319 319 316 317 317 316 317 318 318 318 318 317 318 315 315 317 316 317 318 320 320 320 320 320
312 312 312 312 312 315 321 326 324 324 324 318 318 318 317 319 318 318 319 319 319 318 319 317 317 317 319 318 320 320 319 319 319 318 317 315 317 318 317 318 319 320 320 320 319
313 313 312 312 314 315 316 326 322 320 314 317 317 317 318 318 318 318 318 319 319 317 316 317 317 318 319 319 319 322 320 320 319 317 316 316 316 317 316 316 317 318 320 320 319
314 313 313 315 323 318 324 325 318 322 314 316 317 317 318 319 318 317 317 320 318 318 316 318 319 319 319 320 319 320 319 319 320 318 319 318 316 315 318 318 317 316 319 319 319
317 314 315 321 325 323 323 319 319 322 317 317 318 317 317 319 318 317 318 319 320 317 316 318 319 318 319 319 319 320 320 320 319 319 320 321 320 315 318 319 318 317 318 319 319
318 317 320 323 323 322 320 317 315 324 319 318 317 317 318 319 319 318 318 318 320 318 318 318 319 319 319 319 318 318 319 320 322 322 321 323 324 323 320 319 318 317 318 319 318
316 319 322 322 322 319 316 317 324 322 319 317 319 319 319 320 319 320 319 319 317 321 318 320 321 318 318 318 319 319 320 318 324 321 319 320 324 319 317 318 318 318 318 318 318
316 318 318 318 319 318 320 323 322 322 319 318 319 320 321 321 320 319 319 318 317 317 320 321 320 319 317 317 318 318 319 317 318 317 317 319 319 318 318 319 319 319 320 319 319
315 315 315 315 315 316 322 322 322 320 320 319 319 320 320 320 321 320 320 319 319 317 317 319 320 319 318 317 318 318 316 319 316 319 322 319 321 322 318 318 318 317 317 317 317
316 315 317 314 314 316 318 321 321 320 322 321 321 319 320 319 320 321 320 319 318 318 315 317 318 318 318 316 317 316 318 317 316 315 317 316 315 316 316 315 315 317 318 318 316
319 316 323 317 313 316 316 320 320 319 321 321 322 322 320 320 322 322 321 319 319 320 316 316 315 314 317 316 317 317 318 316 313 316 315 312 313 315 315 316 316 316 316 316 315
320 325 322 316 309 314 316 321 320 319 320 321 322 322 321 321 323 322 320 319 317 317 318 316 315 314 317 317 317 317 317 315 314 310 314 309 312 312 315 312 313 313 313 313 312
323 317 321 321 322 316 319 320 322 321 321 321 321 321 321 322 321 322 321 320 316 315 315 318 316 314 316 316 314 314 313 311 312 310 313 312 314 314 315 313 312 313 313 312 311
325 318 316 312 315 321 320 320 322 322 321 321 321 321 321 322 322 321 320 319 319 316 317 316 317 318 316 314 314 313 313 311 311 310 310 312 314 314 313 312 312 312 311 310 309
324 324 317 314 313 317 318 320 321 321 321 321 321 320 320 320 320 321 319 318 318 316 318 316 316 314 313 314 313 312 311 313 313 314 313 313 314 313 312 312 311 310 309 308 306
323 324 318 320 313 318 318 318 321 321 321 321 319 317 315 318 317 317 317 318 318 316 317 316 310 308 307 310 309 309 313 313 313 313 313 313 312 311 310 310 309 308 306 304 303